Torna al catalogo

NIMBUS 2 DEB

AttivoPO
NORAD 28200·DEBRIS·🇺🇸 United States

Lanciato May 15, 1966 da Vandenberg Space Force Base

Loading…

Prossimi Passaggi (prossime 24 ore)

TLE

AggiornatoSource: Space-Track

Epoca: Sep 14, 2026, 10:51 UTC

1 28200U 66040N   26257.45221161 -.00002987  00000-0 -67368-2 0  9992
2 28200  99.6437 334.3003 0055726 152.0147 276.3234 13.25079515143477

Traccia NIMBUS 2 DEB in tempo reale con AllMySat

Download on the App Store